Nenana, AK

9:43 PM AKDT on May 27, 2018 (GMT -0800)
Nenana Municipal

Weather History for PANN - December, 2013

Change the Weather History Date:

Thursday, December 26, 2013

  Actual Average Record
Temperature  
Mean Temperature -2 °F -  
Max Temperature 43 °F 5 °F 52 °F (2001)
Min Temperature -47 °F -12 °F -47 °F (2013)
Degree Days  
Heating Degree Days 67    
Moisture  
Dew Point 34 °F    
Average Humidity 68    
Maximum Humidity 100    
Minimum Humidity 54    
Precipitation  
Precipitation 0.20 in - - ()
Sea Level Pressure  
Sea Level Pressure 30.07 in    
Wind  
Wind Speed 0 mph (North)    
Max Wind Speed 10 mph    
Max Gust Speed -    
Visibility 2 miles    
Events Fog , Rain    
Averages and records for this station are not official NWS values.
T = Trace of Precipitation, MM = Missing Value Source: NWS Daily Summary

Daily Weather History Graph

Daily Weather History Graph

Search for Another Location

Airport or City:

Astronomy

Dec. 26, 2013 Rise Set
Actual Time 10:58 AM AKST 2:55 PM AKST
Civil Twilight 9:36 AM AKST 4:17 PM AKST
Nautical Twilight 8:26 AM AKST 5:28 PM AKST
Astronomical Twilight 7:25 AM AKST 6:29 PM AKST
Moon 2:38 AM AKST (12/26) 12:27 PM AKST (12/26)
Length of Visible Light 6h 41m
Length of Day
3h 57m
Last Quarter, 37% of the Moon is Illuminated
Dec 26
Last Quarter
Jan 1
New
Jan 7
First Quarter
Jan 15
Full
Jan 23
Last Quarter

Hourly Weather History & Observations

Time (AKST) Temp. Dew Point Humidity Pressure Visibility Wind Dir Wind Speed Gust Speed Precip Events Conditions
12:19 AM -44.0 °F - N/A% 30.04 in 2.0 mi Calm Calm - N/A   Clear
12:48 AM -43.6 °F - N/A% 30.04 in 3.0 mi Calm Calm - N/A   Clear
12:53 AM -44.0 °F - N/A% 30.12 in 3.0 mi Calm Calm - N/A   Clear
1:46 AM -44.0 °F - N/A% 30.04 in 2.5 mi Calm Calm - N/A   Clear
1:53 AM -44.0 °F - N/A% 30.12 in 3.0 mi Calm Calm - N/A   Clear
3:53 AM -45.0 °F - N/A% 30.12 in 4.0 mi Calm Calm - N/A   Haze
4:17 AM -44.0 °F - N/A% 30.04 in 2.0 mi Calm Calm - N/A   Clear
4:44 AM -44.0 °F - N/A% 30.04 in 3.0 mi Calm Calm - N/A   Clear
4:53 AM -45.0 °F - N/A% 30.12 in 3.0 mi Calm Calm - N/A   Clear
5:03 AM -44.0 °F - N/A% 30.05 in 2.0 mi Calm Calm - N/A   Clear
5:13 AM -44.0 °F - N/A% 30.04 in 5.0 mi Calm Calm - N/A   Haze
5:25 AM -44.0 °F - N/A% 30.04 in 1.8 mi Calm Calm - N/A   Clear
5:36 AM -44.0 °F - N/A% 30.04 in 1.5 mi Calm Calm - N/A   Partly Cloudy
5:53 AM -44.0 °F - N/A% 30.12 in 1.5 mi Calm Calm - N/A   Partly Cloudy
6:06 AM -45.0 °F - N/A% 30.04 in 2.5 mi Calm Calm - N/A   Partly Cloudy
6:33 AM -45.0 °F - N/A% 30.04 in 3.0 mi Calm Calm - N/A   Clear
6:40 AM -44.0 °F - N/A% 30.04 in 1.8 mi Calm Calm - N/A   Clear
6:50 AM -43.6 °F - N/A% 30.04 in 1.2 mi Calm Calm - N/A   Scattered Clouds
6:53 AM -44.0 °F - N/A% 30.12 in 1.2 mi Calm Calm - N/A   Mostly Cloudy
7:53 AM -45.0 °F - N/A% 30.13 in 1.0 mi Calm Calm - N/A   Mist
8:01 AM -45.0 °F - N/A% 30.05 in 1.2 mi Calm Calm - N/A   Scattered Clouds
8:53 AM -45.0 °F - N/A% 30.13 in 1.2 mi Calm Calm - N/A   Clear
9:22 AM -45.0 °F - N/A% 30.06 in 2.5 mi Calm Calm - N/A   Clear
9:37 AM -45.0 °F - N/A% 30.06 in 1.8 mi Calm Calm - N/A   Clear
9:44 AM -45.0 °F - N/A% 30.06 in 1.8 mi Calm Calm - N/A   Partly Cloudy
9:53 AM -45.0 °F - N/A% 30.14 in 1.2 mi Calm Calm - N/A   Scattered Clouds
10:34 AM -45.0 °F - N/A% 30.06 in 0.8 mi Calm Calm - N/A   Mist
10:53 AM -45.0 °F - N/A% 30.15 in 0.5 mi Calm Calm - N/A Fog Light Freezing Fog
11:53 AM -45.0 °F - N/A% 30.15 in 0.8 mi Calm Calm - N/A   Mist
12:43 PM -43.1 °F - N/A% 30.07 in 0.8 mi Calm Calm - N/A   Clear
12:53 PM -43.1 °F - N/A% 30.15 in 1.0 mi Calm Calm - N/A   Clear
1:25 PM -43.1 °F - N/A% 30.08 in 0.8 mi Calm Calm - N/A   Mist
1:53 PM -42.0 °F - N/A% 30.16 in 0.8 mi Calm Calm - N/A   Clear
2:05 PM -42.0 °F - N/A% 30.08 in 1.0 mi Calm Calm - N/A   Clear
2:53 PM -43.1 °F - N/A% 30.16 in 1.2 mi Calm Calm - N/A   Clear
3:23 PM -43.1 °F - N/A% 30.07 in 0.8 mi Calm Calm - N/A   Clear
3:50 PM -43.6 °F - N/A% 30.07 in 1.2 mi Calm Calm - N/A   Clear
3:53 PM -44.0 °F - N/A% 30.15 in 1.5 mi Calm Calm - N/A   Clear
4:04 PM -44.0 °F - N/A% 30.08 in 2.0 mi Calm Calm - N/A   Clear
4:11 PM -45.0 °F - N/A% 30.08 in 1.8 mi Calm Calm - N/A   Clear
4:22 PM -44.0 °F - N/A% 30.08 in 1.5 mi Calm Calm - N/A   Scattered Clouds
4:40 PM -45.0 °F - N/A% 30.08 in 2.0 mi Calm Calm - N/A   Partly Cloudy
4:53 PM -45.0 °F - N/A% 30.16 in 1.8 mi Calm Calm - N/A   Partly Cloudy
4:58 PM -45.0 °F - N/A% 30.08 in 3.0 mi Calm Calm - N/A   Clear
5:15 PM -45.0 °F - N/A% 30.08 in 1.8 mi Calm Calm - N/A   Clear
5:48 PM -45.4 °F - N/A% 30.07 in 1.8 mi Calm Calm - N/A   Partly Cloudy
5:53 PM -45.9 °F - N/A% 30.15 in 1.2 mi Calm Calm - N/A   Clear
6:00 PM -45.9 °F - N/A% 30.08 in 1.2 mi Calm Calm - N/A   Scattered Clouds
6:53 PM -45.9 °F - N/A% 30.16 in 1.5 mi Calm Calm - N/A   Partly Cloudy
7:43 PM -45.9 °F - N/A% 30.08 in 2.0 mi Calm Calm - N/A   Partly Cloudy
7:53 PM -45.9 °F - N/A% 30.16 in 2.0 mi Calm Calm - N/A   Partly Cloudy
8:00 PM -45.9 °F - N/A% 30.09 in 1.8 mi Calm Calm - N/A   Clear
8:53 PM -47.0 °F - N/A% 30.17 in 1.8 mi Calm Calm - N/A   Clear
9:01 PM -45.9 °F - N/A% 30.09 in 1.2 mi Calm Calm - N/A   Scattered Clouds
9:17 PM -47.0 °F - N/A% 30.09 in 2.5 mi Calm Calm - N/A   Partly Cloudy
9:23 PM -45.9 °F - N/A% 30.09 in 1.2 mi Calm Calm - N/A   Mostly Cloudy
9:32 PM -45.0 °F - N/A% 30.09 in 0.8 mi Calm Calm - N/A   Mist
9:53 PM -45.9 °F - N/A% 30.18 in 0.8 mi Calm Calm - N/A   Mist
10:05 PM -45.9 °F - N/A% 30.09 in 1.0 mi Calm Calm - N/A   Mist
10:26 PM -45.9 °F - N/A% 30.10 in 1.2 mi Calm Calm - N/A   Clear
10:40 PM -45.9 °F - N/A% 30.10 in 0.8 mi Calm Calm - N/A   Mist
10:51 PM -45.4 °F - N/A% 30.09 in 1.2 mi Calm Calm - N/A   Scattered Clouds
10:53 PM -45.9 °F - N/A% 30.17 in 1.2 mi Calm Calm - N/A   Scattered Clouds
11:37 PM -45.9 °F - N/A% 30.10 in 3.0 mi Calm Calm - N/A   Clear
11:53 PM -45.9 °F - N/A% 30.18 in 2.5 mi Calm Calm - N/A   Clear